PulseSat

PulseSat

MOLNIYA 1-81

Last updated on Feb. 17, 2019, 3:06 a.m. UTC

1 21426U 91043A   19046.77540961  .00000111  00000-0  00000-0 0  9994
2 21426  63.7664 131.1345 6818518 275.4967  16.4538  2.00614217202738
UTC
Height (km)
Latitude
Longitude
Inclination
Orbital Period

Next 30 passes for location: Hong Kong

Rise time Rise Azimuth (degrees) Set time Set Azimuth (degrees) Duration Max altitude (degrees)

No matching passes for this satellites

PulseSat

PulseSat is the new satellites software and hardware trackering solution by Pulsely.
Satellite Two Line Element Set source: US Air Force Space Command

Download PulseSat for iOS
© 2017 Pulsely Limited